Wind_Speed
7 5 8 12 13 14 13 11 10 8 7 5 4 5 6 5 6 6 5 5 7 9 9 12 10 8 11 15 18 18 17 16 16 17 16 15 15 15 16 16 16 17 16 20 28 32 34 35 35 35 34 35 35 35 36 36 36 37 36 35 35 35 35 35 34 33 32 32 32 31 32 33 31 30 29 28 26 25 23 22 22 23 23 24 23 21
7 8 13 15 12 11 10 8 8 10 10 8 5 4 5 6 7 7 5 5 4 6 8 10 9 9 12 15 17 18 18 18 19 19 18 18 17 15 17 18 18 16 13 16 22 27 33 34 34 35 34 35 35 35 37 38 38 38 38 37 37 35 36 37 37 36 35 36 35 34 34 33 31 31 31 29 28 26 24 22 22 23 24 25 24 22
7 12 16 13 8 7 7 7 8 10 10 7 5 4 5 3 3 7 7 5 3 5 5 7 9 10 13 14 16 19 20 19 20 22 21 20 19 16 17 18 17 16 14 15 17 22 30 34 34 35 34 36 37 37 38 39 39 39 38 38 37 36 38 39 39 38 37 37 36 34 33 33 30 30 31 29 27 26 24 23 22 23 25 25 24 22
7 11 12 9 8 9 7 7 9 8 8 7 5 5 6 2 1 5 7 3 3 5 3 6 7 8 11 11 13 19 20 18 19 22 20 19 21 21 21 19 18 19 18 18 18 18 24 30 33 33 34 36 37 37 38 39 39 39 39 39 38 39 39 40 40 39 37 35 34 32 30 31 29 28 29 27 26 25 25 25 24 25 27 26 23 21
7 6 7 10 9 12 10 8 8 7 6 8 8 8 7 5 7 7 4 4 3 4 2 4 2 3 8 11 11 13 16 15 17 18 16 17 18 19 19 18 18 19 19 19 20 19 20 25 31 34 34 36 36 37 38 40 40 39 40 41 41 41 40 40 41 40 36 32 31 30 27 26 26 24 25 26 26 26 27 27 26 28 29 27 24 21
10 7 8 12 11 11 12 10 9 9 6 7 10 12 10 8 9 5 3 4 4 5 3 4 2 5 6 15 15 12 13 15 14 16 18 17 16 15 15 16 17 17 17 18 20 21 20 23 28 32 34 35 36 38 40 41 42 40 41 42 42 41 40 41 41 40 37 33 32 31 28 26 25 23 25 29 30 30 31 30 28 28 29 29 25 23
8 8 7 11 13 12 11 10 10 10 6 8 11 12 10 9 10 5 0 2 3 5 5 3 4 5 4 12 17 14 16 18 15 17 21 18 15 16 15 16 17 16 16 17 18 19 20 21 24 27 33 36 37 39 40 41 42 42 41 42 42 41 40 40 40 40 38 36 34 33 33 32 31 29 31 34 35 34 33 31 28 28 29 29 28 25
8 10 9 10 12 12 11 10 11 11 8 8 7 7 7 9 12 8 3 4 4 4 6 2 3 3 3 9 15 17 18 19 17 18 20 17 16 18 18 17 18 18 18 17 17 19 19 21 23 27 33 36 37 38 39 40 41 43 42 42 43 41 40 39 39 40 40 38 36 36 35 34 35 34 33 35 35 33 32 31 28 27 28 28 28 27
9 13 13 11 10 10 11 12 11 11 10 6 4 5 6 8 11 6 5 5 4 3 8 7 3 3 4 6 11 15 18 19 19 20 20 19 19 20 19 19 19 19 18 18 19 20 20 22 28 32 34 36 37 37 38 40 41 42 42 42 43 41 40 39 40 41 41 40 38 37 35 34 34 34 31 30 30 30 30 30 28 27 27 27 28 27
6 10 13 13 10 8 9 10 10 11 10 3 5 5 4 7 8 4 6 5 3 3 10 10 5 3 5 5 8 11 14 17 18 18 19 20 21 21 20 20 19 18 17 18 19 19 20 26 32 35 34 35 35 37 39 40 40 41 41 41 42 41 40 40 41 42 42 41 38 36 36 35 33 31 28 26 27 29 29 29 28 27 27 27 27 27
4 5 11 12 11 7 6 7 10 12 10 4 5 4 3 5 4 2 4 4 3 6 11 14 8 6 5 5 7 10 13 17 16 15 16 18 19 20 19 19 18 17 16 17 17 17 20 27 33 33 32 33 35 36 38 39 39 40 40 40 41 42 41 41 42 43 43 41 39 38 38 37 34 31 28 27 27 29 29 29 29 28 28 28 28 28
6 6 6 6 10 9 6 7 9 11 12 7 5 4 3 4 2 0 2 4 6 8 9 12 9 8 7 6 6 12 17 20 19 17 19 20 20 19 18 18 18 18 17 16 16 15 17 21 25 28 30 32 35 35 36 38 39 39 40 40 41 41 41 41 42 43 43 42 41 40 40 38 36 32 31 30 30 31 31 31 31 29 28 28 28 28
7 9 6 4 8 11 10 7 7 8 10 8 5 6 5 3 2 4 3 4 7 7 7 8 6 7 8 7 9 15 18 21 20 19 22 24 23 21 20 19 17 17 17 16 15 15 16 17 18 22 27 31 33 35 36 37 37 38 39 40 40 41 42 41 41 42 42 43 43 42 41 39 37 34 33 33 32 32 33 33 32 30 30 29 29 29
5 7 9 9 7 10 12 9 6 6 8 10 8 7 7 5 5 7 5 3 4 5 7 7 5 4 5 6 11 16 19 22 21 20 22 24 25 24 22 21 18 17 17 16 16 16 16 17 17 21 27 30 32 34 37 37 38 38 38 40 41 41 42 42 41 42 43 43 44 43 42 40 38 36 35 34 33 33 33 33 32 33 33 32 32 32
7 8 10 13 7 8 13 11 9 7 7 10 9 7 8 7 6 6 4 4 4 4 6 5 5 5 5 6 10 15 19 21 21 20 19 19 21 20 19 19 18 18 17 16 16 17 18 18 19 23 27 30 32 34 36 37 38 38 38 40 42 42 43 43 42 43 43 44 44 42 41 40 38 37 36 35 34 34 33 33 33 34 35 35 35 34
6 6 3 7 7 9 13 12 10 9 6 8 8 8 9 6 4 3 4 5 4 3 5 4 4 5 4 5 6 9 14 18 20 21 17 15 15 14 13 15 16 16 16 16 16 17 18 17 20 24 28 30 32 34 36 37 38 39 39 41 43 44 44 44 43 43 44 44 43 41 40 39 38 37 36 35 34 34 34 34 33 34 36 36 36 34
4 5 5 7 8 8 13 11 11 11 6 4 7 10 6 5 5 4 4 1 3 4 6 3 3 4 2 5 4 5 9 13 16 19 18 17 15 14 14 14 15 16 16 17 17 18 18 17 20 25 28 30 32 34 37 39 41 42 41 41 43 43 43 44 44 44 44 43 41 40 40 39 38 37 36 36 36 35 35 34 34 34 35 35 35 34
4 7 10 9 8 9 6 8 12 13 9 4 6 8 4 5 4 4 3 3 2 5 5 1 5 5 3 4 3 6 9 10 13 16 19 18 17 17 17 16 17 18 18 19 19 18 18 17 18 24 28 32 35 36 38 40 42 42 42 43 43 43 42 44 44 44 44 43 41 40 40 39 39 39 38 37 37 35 34 34 35 34 34 35 36 35
5 5 9 6 6 7 6 4 8 10 12 9 6 7 6 4 6 5 4 5 5 5 4 3 4 5 5 5 5 8 10 9 12 15 17 18 17 17 18 19 19 19 17 17 17 15 15 15 17 23 28 32 35 37 38 40 40 40 41 42 44 44 44 44 43 43 43 42 41 40 40 41 40 39 39 38 36 34 34 35 35 35 35 36 35 35
5 2 5 4 3 8 6 3 6 8 11 9 5 7 7 5 6 6 4 3 4 4 3 3 3 4 6 5 7 10 10 10 12 13 15 18 18 17 17 17 18 18 16 16 15 15 16 17 20 26 30 32 35 36 37 38 38 39 40 41 42 43 42 42 42 42 41 41 41 40 40 40 40 40 40 38 36 35 35 36 35 36 36 35 35 35
4 1 4 7 9 6 4 4 6 7 7 7 6 7 7 4 3 5 4 3 4 3 3 3 4 6 6 5 8 10 9 10 12 12 13 15 17 17 17 18 17 17 17 17 16 17 18 18 20 27 30 31 32 33 33 35 36 38 38 39 40 40 39 40 41 41 41 41 40 39 39 39 40 40 39 37 36 36 36 36 35 35 35 34 35 35
3 1 3 8 7 4 7 6 2 2 4 5 5 6 8 6 4 5 5 2 3 4 3 4 5 7 6 5 8 9 9 9 12 14 13 13 16 17 17 19 19 18 18 18 18 18 18 17 18 23 27 27 29 30 32 34 35 36 37 38 38 38 38 40 41 41 40 39 39 39 39 39 39 39 38 36 36 36 36 35 35 34 33 33 34 35
5 2 3 7 6 8 17 17 11 10 10 7 6 6 8 6 5 7 7 4 4 4 2 2 4 8 6 6 8 9 11 11 11 14 13 13 16 17 17 18 19 19 19 19 19 18 17 17 18 21 24 26 28 29 32 33 34 35 37 37 37 37 39 40 40 41 40 39 39 40 40 39 39 38 37 36 36 36 36 35 35 34 33 33 34 34
6 3 3 6 6 9 15 14 10 9 6 4 5 4 5 7 8 7 5 5 5 4 4 2 6 9 6 3 5 7 8 9 8 11 14 13 13 16 18 18 18 18 19 19 18 17 16 15 15 17 18 21 25 28 30 32 33 35 36 36 37 38 40 39 39 39 39 38 39 39 38 37 37 36 37 37 37 36 36 36 35 35 35 35 34 33
4 2 3 5 4 5 7 5 3 4 4 4 5 6 7 9 10 5 2 3 5 7 8 6 7 10 6 4 4 5 5 6 6 9 13 14 13 14 15 15 16 17 17 18 17 15 15 14 14 14 15 19 24 27 29 31 33 34 35 36 37 38 38 38 37 37 37 37 37 36 36 36 35 35 36 37 37 37 37 37 36 35 35 35 34 34
3 1 1 2 2 4 4 3 2 5 6 6 7 8 10 9 8 7 3 4 7 7 8 8 10 9 7 8 11 9 4 6 7 8 11 13 14 15 13 13 14 15 16 17 17 16 16 15 16 16 16 19 25 27 28 31 33 34 34 36 37 36 36 36 36 37 37 37 36 35 36 36 36 37 38 38 38 38 38 37 36 36 36 36 36 35
2 2 2 4 5 6 6 6 8 7 7 9 11 13 14 13 11 6 5 7 7 5 6 9 10 9 11 12 15 14 7 7 8 7 11 13 14 14 14 14 14 13 15 16 16 15 16 16 17 18 17 20 26 28 29 31 32 33 33 35 36 35 35 36 37 37 37 37 36 36 38 39 40 40 40 40 40 39 38 38 37 37 36 36 36 36
1 2 3 6 9 9 10 14 16 13 11 12 13 15 17 15 11 7 8 9 8 6 7 7 6 9 14 14 17 18 10 7 9 7 11 14 14 14 14 14 15 15 14 14 15 16 17 18 18 18 16 19 25 27 29 30 32 33 33 33 34 35 35 36 37 37 37 37 37 38 39 40 40 40 40 40 39 39 38 38 38 38 37 37 37 37
1 2 4 6 9 11 13 17 17 13 11 13 14 15 18 18 12 10 12 8 9 9 9 6 7 11 14 15 18 17 9 7 9 9 10 11 13 13 14 14 15 15 15 15 16 17 18 18 18 17 17 18 23 26 27 28 30 31 31 32 33 35 36 36 37 37 37 37 37 38 38 38 38 38 38 38 37 38 38 38 38 38 38 38 38 38
2 3 3 5 9 14 16 14 12 10 10 12 14 14 15 17 16 14 12 9 11 10 8 7 10 13 13 14 15 10 6 7 7 4 5 7 11 12 13 14 15 15 16 17 18 18 18 19 18 18 17 17 20 25 26 27 29 31 31 32 34 35 36 37 37 37 36 36 37 37 37 37 37 37 37 37 37 38 38 37 37 37 38 38 38 37
3 2 3 5 7 12 12 8 7 9 10 11 12 11 13 14 13 13 10 8 8 7 5 5 8 10 9 8 7 5 3 3 3 5 8 10 12 13 13 14 14 15 16 18 18 18 18 18 17 16 17 17 21 25 27 28 30 31 31 32 34 35 36 36 36 36 36 36 36 36 36 36 36 36 36 37 37 37 37 37 36 37 37 37 37 37
3 1 3 4 4 8 7 7 13 15 10 8 7 10 15 11 3 4 2 1 2 5 5 4 5 7 7 4 3 3 6 5 3 4 7 8 9 12 14 13 14 14 15 17 17 17 17 16 15 15 16 17 22 26 28 29 29 29 30 33 34 34 35 35 35 35 35 36 36 36 36 36 36 36 36 36 37 37 37 37 37 37 37 37 37 36
3 2 2 3 3 6 6 10 16 12 6 4 2 9 14 11 9 8 8 10 8 2 5 6 6 6 6 5 2 3 8 7 6 4 4 6 7 10 13 14 15 15 16 16 16 16 17 15 15 16 17 19 23 28 31 31 30 31 34 34 33 33 34 34 34 34 35 36 36 36 37 37 36 36 36 37 38 38 37 37 37 37 37 37 36 35
4 3 1 1 1 5 9 13 11 1 1 4 1 9 13 12 12 11 9 11 12 7 2 4 6 5 5 5 2 5 9 6 5 7 5 3 3 6 8 10 12 13 13 15 15 15 15 14 13 15 18 23 28 31 32 33 33 34 33 32 32 33 34 34 33 34 36 36 36 37 37 37 36 36 37 37 38 37 37 37 38 38 38 36 36 36
4 3 1 1 2 4 8 9 2 6 2 4 3 10 11 8 7 6 5 11 16 14 12 10 7 5 6 6 5 4 10 10 10 13 13 9 5 2 4 4 6 9 9 10 12 12 12 12 12 13 17 24 28 28 29 30 29 28 28 30 32 33 33 33 33 34 35 36 36 36 36 36 36 36 37 37 37 37 37 38 38 38 37 36 37 38
5 3 2 2 2 3 4 4 2 4 7 7 2 9 12 8 9 9 6 12 18 16 14 12 10 8 6 5 4 2 5 11 15 15 14 13 10 7 6 5 5 7 7 7 8 8 8 10 11 13 17 22 25 26 26 26 26 25 26 29 31 31 32 32 32 33 34 34 34 35 36 36 36 36 36 36 36 36 36 37 37 37 37 37 37 37
6 4 2 2 3 1 2 4 3 3 7 5 2 8 10 7 9 9 4 8 14 14 13 11 10 10 7 4 4 7 4 9 14 11 13 14 12 9 8 7 7 9 8 8 8 9 11 13 14 15 17 19 21 23 23 23 25 26 26 27 28 29 30 30 30 32 33 33 34 35 36 37 37 36 36 36 35 36 36 37 38 38 38 37 36 36
8 6 3 2 2 1 2 3 4 2 2 2 7 12 9 7 9 8 3 3 11 15 15 12 10 10 9 8 7 8 6 8 11 7 10 12 11 10 10 10 9 10 10 9 10 12 14 17 18 18 19 19 19 21 23 24 26 27 25 26 28 28 28 29 30 32 33 33 34 35 36 37 38 37 37 36 36 36 37 37 38 38 38 37 37 37
9 7 4 3 2 2 1 2 3 2 2 5 14 17 14 10 8 6 2 3 11 16 16 13 12 12 10 10 9 5 1 7 7 5 7 9 9 9 9 10 11 11 11 12 14 15 17 21 23 21 20 18 14 17 24 27 28 27 25 25 26 26 26 28 30 32 33 34 35 36 37 38 38 39 38 37 37 37 38 38 39 38 38 37 37 37
8 5 4 3 4 4 3 3 3 2 2 7 15 16 17 15 9 2 3 3 9 15 15 14 13 13 12 11 9 6 7 7 5 3 6 7 8 9 9 10 11 10 11 14 17 19 21 24 25 22 19 17 14 13 20 26 27 25 24 24 25 25 26 29 32 34 34 35 36 37 38 38 38 39 38 37 38 38 38 39 38 37 36 36 36 36
4 3 4 4 4 5 4 3 3 2 1 9 15 17 18 14 5 2 4 3 8 12 12 12 14 13 12 11 8 7 8 8 6 5 6 8 9 11 10 9 10 12 13 14 17 21 23 24 24 22 19 19 19 18 17 19 18 16 16 19 20 21 23 24 26 29 31 33 34 36 36 37 38 38 38 38 38 38 38 37 36 36 35 35 35 34
3 2 2 3 3 3 3 3 3 1 3 10 15 15 13 7 2 4 4 4 7 10 10 11 13 12 11 11 9 8 8 9 9 9 10 10 11 11 10 10 11 13 15 16 19 21 21 21 22 23 22 22 23 22 19 19 17 13 10 9 7 10 13 15 18 22 25 27 30 32 34 35 36 36 37 37 36 35 35 35 35 35 35 34 33 32
2 2 2 2 2 2 2 2 1 1 4 11 13 10 8 7 3 3 4 4 7 9 10 10 11 11 10 11 10 10 10 11 11 11 11 11 11 11 11 11 10 10 12 14 16 18 19 19 19 20 22 24 25 24 21 20 19 16 13 11 6 1 4 8 13 17 21 24 27 29 31 33 34 35 35 35 35 34 34 34 34 34 33 33 32 31
3 1 1 2 1 1 1 0 2 2 4 8 7 4 5 5 4 4 3 4 7 9 9 8 10 11 10 9 9 10 11 12 12 11 11 11 11 11 11 11 10 10 11 12 14 17 19 18 17 19 22 23 25 24 22 20 18 16 15 13 11 6 1 4 7 12 18 23 26 29 30 32 33 33 33 34 34 33 33 32 32 32 32 32 30 29
4 3 3 3 3 3 2 1 2 3 3 3 3 3 5 6 7 7 6 5 7 8 8 8 10 12 11 10 9 10 11 11 11 11 11 11 10 10 11 11 10 11 12 13 15 18 19 18 18 19 20 21 23 22 20 19 17 15 14 13 13 11 7 3 6 10 15 20 23 26 29 30 31 32 33 33 33 33 32 31 30 30 30 30 29 28
4 5 4 3 5 6 3 1 3 5 3 3 4 5 7 8 8 10 7 5 6 6 8 8 9 11 12 11 10 10 11 11 10 10 10 10 10 11 10 10 11 12 13 13 14 16 18 18 18 18 17 18 20 20 18 17 16 14 12 12 12 13 11 7 4 8 13 17 21 23 26 28 29 31 32 31 32 32 32 31 30 29 28 28 28 27
5 7 5 5 6 5 2 4 6 7 5 3 5 6 8 9 9 9 9 7 5 6 8 10 10 10 11 11 11 10 11 12 12 10 9 8 9 10 10 10 10 11 13 13 13 15 16 16 14 14 14 15 17 17 16 15 14 13 11 11 11 11 12 9 5 5 9 14 18 20 22 25 27 28 29 29 30 31 31 31 30 29 27 27 27 25
6 7 5 5 6 4 4 7 8 6 5 1 5 5 6 8 9 10 11 10 7 5 7 9 9 9 8 9 10 10 10 11 11 10 9 7 7 8 8 9 9 10 14 16 16 15 14 12 11 11 11 12 14 15 15 14 13 12 11 11 11 11 11 10 7 4 6 9 13 17 19 22 24 24 25 25 25 25 25 24 25 25 25 26 26 25
5 5 5 6 7 6 6 6 6 5 4 3 4 5 6 5 7 9 11 13 11 8 7 8 9 9 7 7 7 8 9 10 10 10 10 8 7 7 7 8 9 11 14 16 16 14 12 10 9 10 10 11 12 14 14 14 13 13 12 12 12 12 11 11 9 5 5 7 9 13 16 18 20 21 22 22 21 19 17 17 19 21 21 21 23 25
4 5 6 6 6 6 4 3 6 6 6 7 7 4 5 6 7 7 8 12 14 10 6 7 9 9 8 7 6 7 8 8 9 9 9 8 8 8 8 8 10 12 14 15 15 15 13 11 10 10 11 12 13 14 14 14 14 13 13 13 13 13 12 12 10 7 5 6 8 11 13 15 17 19 21 22 21 18 15 12 13 15 16 17 20 23
5 7 7 6 7 10 10 8 8 8 9 12 12 8 4 5 6 7 6 8 12 11 6 5 7 8 9 8 8 8 8 7 8 8 8 8 9 10 11 10 9 10 14 15 14 14 13 13 12 11 11 12 13 13 12 13 13 13 13 12 12 12 12 12 10 7 6 6 8 10 13 15 18 19 21 21 21 20 18 14 10 9 11 14 16 19
Wind_Direction
176 185 198 207 210 208 213 209 208 232 251 242 201 209 223 232 255 240 246 252 186 178 204 200 191 188 181 176 177 176 176 180 180 181 185 184 185 189 191 193 192 193 193 189 189 190 189 190 191 191 191 191 191 192 192 192 193 195 194 195 197 199 199 198 198 200 200 202 205 208 210 212 217 217 216 219 222 222 224 224 224 224 221 219 220 224
175 202 216 211 204 203 212 203 194 213 234 249 236 229 242 231 250 256 252 262 205 193 217 200 181 193 193 182 179 176 178 186 185 185 188 185 187 191 192 195 196 197 190 182 187 189 189 190 190 190 191 190 190 191 191 192 194 195 195 196 197 197 198 199 199 199 200 202 203 204 207 209 212 214 213 216 218 219 221 223 226 224 220 218 220 224
190 220 222 204 178 186 207 194 190 208 218 234 235 234 257 236 266 277 263 262 214 207 227 194 184 203 201 190 182 179 184 192 190 189 187 184 186 190 193 195 196 196 190 185 186 186 187 189 189 189 191 192 192 191 192 193 193 194 196 197 197 197 198 200 201 201 202 204 204 205 207 207 209 211 212 214 216 217 220 223 224 220 216 217 219 222
194 228 215 177 164 185 209 203 192 207 216 221 222 224 245 231 180 254 260 266 211 215 221 185 195 209 202 198 191 190 192 192 193 194 190 186 188 190 193 194 192 193 191 188 188 186 185 187 188 189 190 192 192 192 192 193 193 193 196 197 197 199 200 201 202 203 204 204 206 207 208 209 210 213 213 213 216 217 220 223 222 218 215 217 219 221
223 245 172 157 180 191 206 219 198 205 223 223 222 222 232 230 221 234 290 333 297 266 240 163 222 246 194 196 205 202 199 198 196 193 194 198 196 193 193 194 194 195 192 189 189 189 186 186 188 189 189 190 191 192 193 193 193 194 195 197 198 199 200 202 203 203 203 203 204 205 207 209 210 213 213 212 214 215 218 221 220 219 218 219 220 221
235 241 160 169 189 191 204 219 209 205 220 233 227 222 221 230 239 247 327 333 318 298 270 152 216 287 203 194 204 201 199 205 198 192 198 202 198 195 195 197 198 200 197 193 191 191 191 189 188 187 188 189 191 193 194 193 194 195 195 196 197 199 199 202 203 202 201 201 201 201 200 201 202 205 209 210 212 213 215 218 219 219 220 220 221 222
226 216 177 186 191 192 206 218 215 200 207 237 227 217 214 228 246 245 184 270 246 262 268 156 183 266 237 202 204 194 197 205 196 196 203 199 194 196 198 197 197 200 198 198 197 194 194 191 188 188 189 190 192 194 194 193 194 195 196 196 197 198 199 200 201 200 200 200 201 201 201 201 201 202 207 210 211 213 214 217 219 220 221 222 224 224
200 194 191 200 193 195 208 215 209 190 203 235 218 201 198 220 243 233 190 239 247 273 287 259 180 237 248 217 210 194 196 205 198 200 205 198 197 199 199 198 196 199 197 196 197 195 195 194 191 192 191 192 194 193 192 193 194 195 195 196 197 198 199 199 199 199 199 199 201 202 203 204 205 206 207 209 210 212 215 216 218 220 221 222 224 226
188 195 194 200 200 203 210 212 198 188 215 231 169 180 190 217 242 213 172 236 257 294 282 267 200 224 258 236 217 199 196 203 202 203 203 198 200 200 200 200 198 199 198 197 197 194 194 194 194 195 194 194 193 191 192 193 195 195 195 196 196 197 198 199 199 199 200 201 202 202 203 205 208 210 209 209 209 211 214 215 217 219 219 220 222 225
189 195 187 197 213 212 212 212 194 196 223 204 143 180 200 227 241 181 168 218 226 231 255 256 214 205 272 249 209 203 202 205 205 205 203 200 201 200 199 199 198 198 198 201 200 195 194 194 196 197 195 194 192 191 193 194 195 195 195 195 195 196 197 198 199 199 200 201 202 202 204 206 208 209 209 209 210 211 213 215 216 218 217 217 219 222
227 193 178 197 217 202 191 209 202 205 215 173 154 204 258 257 253 157 170 189 220 235 245 250 225 183 257 258 200 201 206 204 204 205 205 205 204 202 202 199 196 197 199 202 200 197 195 195 196 196 194 193 193 193 192 192 194 194 195 194 195 196 197 198 199 199 200 201 202 204 205 207 208 207 206 206 208 209 212 214 215 217 217 217 219 222
241 225 189 196 207 187 172 204 210 209 210 199 178 191 248 284 302 270 159 167 221 237 242 246 227 192 229 257 210 207 210 205 202 200 200 204 204 203 203 200 196 197 199 199 197 196 195 194 195 194 193 193 192 192 191 192 193 193 194 194 194 196 197 198 198 199 200 200 202 205 206 208 209 207 206 206 208 208 210 213 215 216 216 217 219 221
227 230 230 219 205 189 182 199 209 206 206 206 189 176 198 233 236 221 196 190 222 238 244 227 201 204 227 236 211 206 212 212 207 202 199 200 202 200 199 198 197 197 197 196 195 195 193 192 193 191 191 191 191 191 191 191 191 192 194 193 193 195 197 198 198 198 199 200 202 205 207 208 209 209 209 210 210 210 211 213 214 214 215 215 217 219
212 230 225 223 220 193 192 192 194 203 198 199 197 185 192 195 206 216 214 228 226 239 247 209 175 217 234 232 211 198 207 214 212 210 205 201 201 198 196 194 194 195 194 195 195 195 196 193 191 191 191 190 191 191 190 190 191 191 193 193 193 195 197 197 198 198 199 200 203 205 206 208 208 209 211 212 213 213 214 214 215 215 216 216 217 219
219 228 211 213 207 176 197 202 187 184 189 202 198 184 202 201 193 205 196 203 207 235 249 201 175 202 192 218 211 193 202 209 210 215 210 207 207 200 194 191 191 194 194 194 195 196 198 193 190 190 191 191 190 190 190 190 191 190 191 193 194 195 196 197 198 198 200 202 204 205 206 207 208 210 212 214 215 216 216 216 217 217 217 218 220 221
248 238 199 219 215 179 199 206 182 175 193 207 191 192 216 198 159 195 200 184 168 208 242 205 200 217 203 249 237 194 203 205 207 212 206 207 210 200 195 194 193 196 194 193 196 199 199 192 190 191 191 191 190 190 191 191 191 191 191 193 194 196 196 197 198 199 200 202 204 205 206 207 208 210 211 213 215 216 217 218 218 218 219 220 221 222
306 275 335 324 284 224 203 194 181 188 192 179 189 206 208 143 148 219 241 223 125 193 232 200 212 254 266 269 252 169 193 206 206 207 202 201 197 190 195 197 196 197 194 194 196 198 196 191 191 193 190 189 189 190 191 192 192 192 192 192 194 196 196 197 198 199 201 203 204 205 206 207 208 209 211 213 214 216 217 218 219 220 220 221 222 223
341 290 299 299 275 268 239 197 197 195 176 154 197 200 133 101 167 200 225 267 204 217 255 214 194 210 194 235 232 157 177 205 206 204 203 201 190 187 195 196 196 197 196 197 198 197 194 191 191 192 191 191 191 191 192 192 193 193 193 193 194 196 197 197 198 199 201 202 203 205 206 207 208 209 211 213 214 215 215 217 219 220 221 222 223 223
332 302 289 256 230 300 321 220 212 206 198 203 191 160 144 166 198 184 194 227 214 226 277 285 222 203 193 219 219 184 181 193 202 205 206 203 193 190 195 196 195 196 196 198 199 196 192 191 192 192 193 192 192 192 193 193 193 193 194 195 196 197 198 198 198 200 201 202 203 204 206 207 209 210 212 213 214 213 214 216 218 219 221 222 223 224
327 317 290 301 329 324 317 213 211 216 212 210 175 156 171 189 193 187 187 193 201 223 252 275 265 229 222 214 193 193 191 183 191 201 207 206 200 194 194 196 195 193 195 196 196 195 193 193 194 193 194 192 191 192 192 192 192 193 195 196 197 198 198 198 199 200 201 202 203 204 206 207 209 211 212 213 213 213 214 217 217 219 220 221 223 224
332 11 283 311 338 326 259 199 195 209 215 209 195 188 190 191 174 190 203 155 160 198 201 225 260 254 247 219 189 199 204 188 182 189 203 207 204 198 193 194 195 192 193 194 192 194 195 195 194 194 194 192 190 190 190 191 192 193 195 196 197 198 197 198 199 200 201 202 203 204 205 207 209 211 212 213 213 214 215 217 218 219 220 221 222 224
316 350 293 298 326 309 252 261 323 333 293 246 222 207 201 198 149 178 226 222 151 185 179 183 247 262 248 207 190 198 209 204 186 183 195 203 203 203 196 193 194 193 193 193 193 194 194 194 193 192 191 189 187 188 189 190 192 193 194 196 197 197 197 198 199 200 202 202 202 204 205 207 209 211 212 212 213 215 216 217 218 220 220 221 223 224
306 303 292 281 279 265 262 270 288 295 284 267 252 228 205 195 162 186 221 218 184 209 174 134 261 267 251 210 198 201 209 213 194 182 191 199 201 203 199 195 195 193 193 193 192 193 192 192 190 186 186 187 187 187 188 189 191 192 195 196 196 197 198 199 200 201 202 201 203 205 206 207 208 209 211 212 214 216 217 218 219 220 221 223 224 225
327 327 317 304 289 274 270 267 269 273 268 275 282 264 229 214 198 199 208 181 185 214 195 208 271 268 268 237 216 225 227 224 199 179 190 200 204 205 199 195 194 193 194 193 192 192 190 187 183 181 185 187 186 187 188 188 191 193 194 195 195 198 199 199 199 200 201 202 203 205 205 207 208 208 210 212 214 216 217 219 220 220 222 224 224 226
337 345 353 339 325 294 278 254 266 332 8 348 301 292 284 250 211 193 128 158 206 210 183 195 246 253 275 307 284 280 265 247 223 187 193 200 202 205 201 194 191 191 192 192 189 188 184 179 177 182 187 186 186 188 188 188 191 193 194 195 196 198 199 198 198 199 200 202 203 204 205 206 207 208 210 212 214 216 218 219 220 221 222 224 224 226
314 303 344 339 290 255 246 225 274 332 338 314 291 292 303 291 241 211 146 167 222 211 173 197 235 255 289 303 287 280 268 261 248 197 196 207 202 199 195 190 189 188 188 189 186 182 180 177 180 187 188 186 186 188 188 188 191 193 194 196 197 197 197 196 198 198 200 201 202 202 204 205 206 209 211 213 215 216 218 218 219 220 222 223 224 225
285 255 233 218 239 252 263 282 288 290 289 286 291 294 297 298 284 255 183 182 200 179 187 216 229 254 274 273 271 272 264 273 269 207 193 208 204 195 191 186 185 184 185 186 181 178 178 178 184 188 187 186 187 188 188 189 191 192 193 195 196 196 195 196 197 198 199 200 201 202 204 205 207 209 211 213 215 216 217 218 219 220 221 223 224 225
274 275 265 235 247 259 269 280 284 282 273 267 277 287 284 284 286 269 233 203 157 153 221 232 203 231 252 251 255 264 268 285 280 229 199 202 196 190 188 182 181 181 182 181 177 177 179 181 186 188 185 186 187 188 189 190 192 193 193 194 194 194 195 195 196 197 199 200 201 203 205 206 208 209 211 213 214 216 217 218 219 219 221 222 223 225
246 258 278 269 277 281 277 277 275 268 260 257 261 269 275 276 270 257 248 212 156 178 225 215 182 217 243 246 250 258 260 262 260 235 214 203 186 182 183 180 180 179 176 176 177 179 181 183 185 186 185 186 186 187 188 190 192 193 193 193 193 194 195 195 195 197 198 200 202 204 206 207 208 210 212 213 214 216 217 218 219 219 221 222 223 224
261 252 289 304 302 295 286 275 263 261 273 280 274 267 271 273 261 252 250 215 181 198 217 193 195 220 237 243 251 260 246 238 243 233 228 204 182 180 180 179 181 179 175 177 180 182 184 185 186 186 184 184 185 187 187 189 191 192 192 192 192 194 195 194 195 197 198 200 203 205 206 207 208 210 211 212 214 216 217 218 219 219 221 222 223 224
287 290 322 332 317 298 292 287 285 295 297 283 279 290 301 285 252 236 241 224 198 207 213 189 205 235 251 251 262 295 310 264 224 197 207 201 185 181 181 181 182 179 177 179 180 182 184 185 186 184 183 184 186 186 188 190 192 192 191 192 193 194 194 194 194 196 198 201 204 205 206 207 208 209 210 212 213 215 217 218 218 220 221 222 223 225
296 301 336 2 333 292 297 330 322 316 306 274 283 331 331 320 260 189 165 33 251 215 193 171 198 244 269 275 280 348 17 7 317 238 228 218 189 176 178 181 181 179 180 181 181 182 183 183 182 181 184 187 186 187 190 191 190 191 193 194 194 194 193 193 194 195 198 202 203 204 205 206 207 209 210 212 213 215 216 217 218 220 221 222 223 224
266 266 339 19 318 283 301 327 318 317 321 278 298 1 347 353 28 46 49 28 355 277 183 192 219 255 281 281 263 52 43 21 350 338 284 251 218 189 183 181 180 180 180 180 179 179 179 180 181 183 185 185 185 189 192 191 190 193 195 194 193 192 192 193 194 195 198 202 203 204 205 206 206 208 210 211 213 215 215 216 217 219 220 222 223 224
257 267 327 70 273 289 306 314 309 306 133 245 130 35 359 359 23 32 41 25 4 358 348 260 261 289 325 320 307 94 80 53 20 22 12 321 254 205 187 180 180 180 178 178 180 179 179 180 180 181 183 184 187 191 193 193 195 197 196 193 191 191 192 192 193 195 199 202 203 204 205 205 206 207 209 211 212 213 214 215 217 219 220 221 222 223
250 264 267 194 228 281 307 320 309 150 205 272 81 36 357 342 9 14 37 31 18 7 359 341 315 343 40 28 358 84 103 90 60 38 28 21 19 98 126 128 156 161 164 171 173 173 175 176 174 175 180 184 187 189 192 195 197 195 192 192 192 192 192 192 194 197 200 202 203 204 204 205 206 208 210 211 211 212 213 215 217 218 219 220 221 223
221 246 253 231 246 279 314 326 190 195 302 309 33 17 356 347 356 356 13 23 17 7 357 346 328 343 45 55 350 331 100 84 65 39 21 19 21 41 73 79 102 122 131 144 153 159 164 168 170 173 177 181 182 185 189 192 192 190 190 192 193 193 193 193 195 198 201 202 202 204 204 205 206 208 209 210 210 211 212 214 217 218 219 220 221 224
201 222 248 231 228 237 300 299 274 287 322 329 11 355 345 326 329 338 350 8 8 5 356 344 334 342 3 18 321 282 299 56 60 32 10 15 17 30 56 67 78 92 99 105 114 121 130 142 152 158 163 169 175 181 183 183 184 185 188 191 193 193 194 195 197 199 201 202 203 204 205 205 206 207 209 209 209 210 212 214 216 218 218 219 220 222
191 203 219 217 217 5 353 311 313 306 292 340 338 327 309 278 289 291 257 356 4 2 355 346 343 352 356 352 326 285 294 44 54 18 358 7 8 24 46 55 64 76 82 89 97 101 109 122 132 142 150 155 165 176 179 178 181 183 185 189 191 192 193 196 199 201 202 204 204 205 206 206 207 208 209 209 209 210 212 214 216 218 218 218 219 222
186 198 230 258 258 316 337 283 299 268 231 330 335 322 309 306 302 278 210 40 1 353 352 349 349 359 6 358 345 326 76 77 62 8 353 3 8 23 41 50 56 65 69 74 84 91 99 106 109 114 121 124 135 168 179 180 180 180 184 189 190 192 195 199 202 203 203 205 206 207 208 208 208 209 209 210 210 211 213 215 217 218 218 218 219 222
179 190 226 246 240 251 254 251 278 256 256 327 331 321 312 312 309 282 114 46 351 343 346 351 355 3 11 11 10 30 73 88 83 27 360 7 21 31 38 44 49 58 65 68 77 85 91 94 93 91 92 90 93 131 166 177 178 178 184 187 188 193 200 204 206 206 206 207 208 209 210 209 209 210 210 211 212 213 214 216 217 218 218 218 220 223
155 177 217 228 240 248 239 247 274 250 359 339 328 319 315 313 313 75 76 11 337 334 339 355 2 3 10 21 30 43 56 64 69 49 26 26 34 34 33 38 44 50 58 65 75 82 83 83 84 83 81 81 83 96 127 150 157 165 178 184 190 200 206 209 211 210 210 210 209 210 211 211 210 211 212 213 214 215 215 216 217 217 217 218 219 221
143 165 213 224 234 237 217 237 276 258 34 355 330 319 327 341 47 67 35 350 335 332 335 358 8 2 7 25 33 37 46 49 46 41 35 33 37 33 29 33 40 46 53 62 71 79 83 81 81 79 76 75 76 82 96 107 105 105 124 146 182 210 216 220 220 217 215 214 212 211 211 212 213 213 213 215 214 214 215 216 217 217 218 218 219 220
143 188 217 224 224 229 218 235 306 325 358 350 339 337 6 24 23 356 356 349 348 346 344 0 11 4 6 21 26 26 33 36 33 33 31 30 33 32 28 31 36 40 48 55 61 72 80 81 78 75 73 72 71 72 78 82 79 77 77 67 45 39 211 222 223 221 220 218 216 215 213 213 214 214 214 215 214 214 215 216 216 217 217 217 218 219
45 44 294 306 327 341 226 16 9 337 319 333 341 17 47 24 344 344 9 4 359 357 349 356 8 5 6 18 22 23 30 30 25 24 24 24 26 26 25 28 30 33 42 48 52 61 70 74 74 71 69 69 67 65 65 68 68 63 55 42 30 28 10 236 223 220 221 219 217 216 214 214 215 214 215 215 214 214 215 215 215 215 216 216 216 217
17 13 350 307 299 304 283 267 320 307 288 312 341 27 58 39 6 5 23 29 14 358 340 343 359 1 3 13 19 22 28 26 21 20 20 18 18 20 22 22 21 25 33 41 47 53 61 67 69 67 64 63 65 63 59 58 59 55 43 31 26 22 8 302 242 228 224 221 218 216 214 213 213 214 215 214 213 213 214 214 214 214 214 215 215 215
337 360 5 328 312 309 297 325 347 336 343 27 36 31 46 50 23 2 6 26 25 2 341 338 350 357 360 7 16 18 16 14 17 21 18 13 10 12 17 17 15 20 26 31 38 47 55 60 61 61 58 55 56 59 56 53 53 50 38 25 20 17 9 350 288 246 233 227 224 220 215 211 210 211 213 213 213 214 214 214 213 213 212 212 213 214
341 357 2 349 336 327 338 8 353 337 332 32 69 43 32 40 31 5 351 352 5 12 355 339 339 351 1 7 11 10 5 6 11 12 12 14 10 6 9 14 12 15 19 23 31 43 52 56 56 55 54 48 46 49 50 47 45 41 32 23 18 12 9 7 346 278 249 235 229 223 216 211 208 207 207 208 210 213 215 215 214 213 212 210 210 212
335 342 350 350 340 307 285 307 316 306 288 206 117 74 35 32 27 6 343 330 336 6 358 337 334 345 357 4 8 4 360 1 2 359 360 8 10 2 3 6 6 10 17 21 27 38 46 51 59 63 59 49 44 45 45 44 40 31 23 20 18 12 8 8 359 315 275 252 236 226 219 214 209 204 201 202 205 208 211 212 214 214 215 213 211 210
312 329 347 343 322 286 273 297 321 324 293 225 150 90 62 44 23 6 344 329 333 353 356 339 336 340 343 355 5 4 358 355 354 352 350 352 0 3 359 356 357 5 13 16 21 30 38 42 55 68 65 54 47 44 42 39 33 22 14 13 14 15 9 2 352 326 284 265 246 230 221 214 208 201 195 192 192 194 196 203 209 213 216 217 216 215
336 347 350 340 313 282 278 352 6 342 300 274 285 338 44 47 16 2 343 326 326 333 339 330 329 334 340 347 359 6 359 348 344 347 345 342 346 352 357 358 357 358 4 11 16 22 28 31 37 48 53 49 44 40 37 33 26 16 7 1 0 5 5 356 346 324 279 256 243 229 217 207 200 195 190 185 180 176 174 180 197 206 209 213 216 219
1 346 331 313 289 279 285 306 319 302 282 279 289 305 17 40 354 337 333 317 310 309 313 318 323 334 340 341 352 4 357 337 332 338 339 335 334 340 350 359 358 348 349 359 9 13 13 16 23 28 35 42 42 38 34 31 23 13 3 354 348 349 352 351 342 318 280 250 235 223 209 197 190 186 183 180 176 172 166 159 162 183 199 208 213 217
Height
738 750 752 747 743 741 742 745 748 750 748 750 753 755 754 756 754 744 738 727 722 738 744 740 744 746 745 743 739 739 741 745 749 750 751 753 754 756 757 758 758 757 756 756 760 763 766 770 773 777 780 783 786 788 791 794 796 799 801 804 806 809 812 815 817 819 821 823 824 826 828 829 831 833 834 836 837 838 840 841 842 843 844 845 846 847
738 751 744 732 734 736 739 741 743 746 748 749 752 755 754 755 752 740 736 729 722 736 742 737 744 747 741 740 736 737 742 744 744 746 748 749 751 752 753 755 754 754 753 755 758 760 764 767 770 774 776 779 782 785 788 790 793 796 799 801 803 806 809 811 813 816 817 819 820 822 824 826 829 830 832 834 835 837 838 840 841 842 843 844 845 846
746 744 731 727 731 734 737 738 741 744 746 749 751 755 757 752 749 741 733 729 726 736 741 738 746 747 737 734 734 734 736 736 734 735 738 742 747 749 750 751 751 753 754 755 756 757 760 763 767 770 772 775 778 781 784 787 790 793 796 798 801 804 806 808 810 812 814 816 818 821 823 825 828 829 831 833 834 836 837 839 840 841 842 843 844 845
747 734 723 726 729 733 738 737 740 744 744 748 750 755 757 749 750 749 737 731 728 730 735 737 743 744 736 734 734 730 727 728 728 729 732 734 738 739 740 742 745 749 751 752 752 754 756 760 763 765 768 771 774 778 780 783 787 789 792 795 798 801 803 805 808 810 813 816 819 821 823 825 827 829 831 833 834 835 836 837 838 839 840 842 843 844
736 723 718 725 728 732 739 738 740 746 748 746 745 749 752 747 747 748 740 735 731 729 728 735 749 749 741 743 740 730 727 729 728 731 735 735 733 734 736 739 741 743 744 747 749 750 751 754 756 760 763 767 771 773 776 779 782 785 788 791 794 797 800 802 805 808 812 816 818 820 823 825 827 828 830 831 832 833 834 835 836 837 839 840 842 843
728 718 716 724 729 731 737 739 738 742 749 748 741 738 742 744 744 745 743 742 747 749 733 735 762 762 744 742 739 732 733 733 731 733 736 735 734 737 739 740 740 741 741 742 743 743 745 748 752 757 760 763 766 768 771 775 779 782 785 788 791 794 797 800 803 806 810 813 816 817 820 822 823 825 826 827 828 829 830 831 833 835 837 839 841 842
721 717 718 724 728 731 736 738 733 735 748 750 734 728 735 740 743 746 747 748 758 759 736 732 758 765 752 743 734 730 734 733 731 733 731 732 735 735 735 736 737 739 740 740 740 740 742 745 749 753 756 758 761 764 768 772 776 779 782 786 789 792 794 797 800 804 808 810 813 814 816 817 818 820 821 822 824 826 827 829 832 834 836 838 839 841
713 717 721 723 727 732 736 735 729 729 744 743 725 725 735 738 742 746 748 752 753 749 740 734 744 759 760 746 728 725 732 733 732 732 729 729 732 730 730 731 732 733 735 737 738 738 739 742 745 748 751 754 757 762 767 770 773 776 779 783 786 789 792 795 798 801 804 807 809 811 813 814 815 815 817 820 822 824 826 828 830 832 834 836 838 839
708 717 720 721 728 731 728 725 722 725 735 731 720 725 731 734 739 741 747 752 747 752 757 743 740 759 761 740 726 726 731 735 732 728 726 726 726 726 726 726 727 728 729 731 732 733 734 737 740 743 747 751 756 760 764 767 770 773 777 780 783 786 790 792 796 798 801 804 806 809 811 812 813 814 817 820 822 824 825 827 829 831 832 834 836 838
705 708 711 717 725 725 721 718 717 723 729 723 718 723 727 730 734 738 746 749 750 762 765 745 741 761 760 738 731 735 734 732 727 721 719 718 718 719 720 721 722 725 727 727 727 728 730 732 736 740 745 750 754 757 761 765 768 772 775 778 781 784 787 790 793 795 798 801 804 807 808 809 811 814 817 819 821 823 824 826 827 829 830 832 834 836
703 699 702 708 712 714 715 715 714 717 720 718 720 727 732 734 735 739 742 745 759 769 757 739 736 753 760 741 731 731 724 718 717 717 716 714 715 716 715 717 719 721 723 723 725 726 727 730 733 738 743 747 752 755 759 762 766 769 772 775 778 781 784 787 790 792 795 798 801 803 806 807 810 812 815 817 819 821 823 824 825 827 829 830 832 834
705 705 704 700 699 704 711 714 713 711 713 719 726 732 743 746 743 748 749 752 771 770 747 733 731 745 758 741 722 717 708 702 706 709 711 711 711 712 712 713 714 716 718 720 724 726 727 729 732 736 740 744 748 752 755 759 762 766 769 772 776 779 782 784 787 790 792 795 798 800 803 805 808 811 812 814 816 818 820 822 823 825 827 829 830 832
711 708 703 698 695 697 709 719 718 715 715 722 729 736 754 764 761 766 766 762 768 760 736 728 733 742 743 724 710 708 701 696 695 694 697 700 701 703 705 708 709 711 714 717 721 722 724 726 728 731 735 739 744 747 751 755 759 763 766 769 773 776 779 781 784 787 790 792 795 797 800 803 806 809 810 812 814 816 818 820 822 823 825 826 828 830
718 710 701 702 699 692 701 717 724 724 720 724 730 737 754 769 774 778 772 763 763 751 729 724 734 740 731 709 697 697 694 688 686 685 686 687 689 693 695 699 703 706 710 713 716 718 719 720 722 726 730 734 739 743 747 751 755 759 763 766 770 772 776 779 781 784 787 789 791 794 797 800 804 806 808 810 812 814 816 818 820 821 822 824 825 826
728 721 704 699 699 692 695 703 709 714 718 718 716 725 740 747 758 767 764 761 758 745 730 730 736 733 721 700 683 682 681 678 679 680 681 683 683 685 690 695 700 703 706 708 711 713 713 714 717 721 725 729 734 739 744 748 751 755 759 762 766 769 772 775 778 781 784 786 789 792 795 798 801 804 806 808 810 812 815 816 818 819 820 822 823 824
735 718 698 692 690 688 692 692 692 704 718 714 707 720 730 723 729 744 745 741 740 738 732 730 726 713 700 685 673 676 677 673 676 676 680 686 686 688 695 698 699 701 702 705 707 709 709 711 714 717 720 725 730 735 739 743 747 751 754 758 762 765 768 772 775 778 780 783 787 790 793 796 799 802 804 806 809 810 813 815 816 818 819 820 821 823
751 725 706 705 696 684 687 687 686 699 712 712 713 719 713 704 714 734 741 731 732 742 732 719 714 705 697 687 674 677 680 676 676 676 678 683 684 690 695 696 697 698 699 701 701 703 705 707 710 712 716 721 725 730 733 738 742 745 750 754 758 762 765 768 771 774 777 781 784 787 791 794 796 799 801 803 806 808 810 813 814 816 818 819 820 822
763 748 723 713 704 686 681 683 683 685 693 707 717 710 701 706 712 725 742 741 741 747 731 715 713 708 708 700 680 679 684 681 679 677 676 679 682 688 690 690 692 692 693 695 695 697 700 703 706 709 713 716 720 724 728 733 738 742 747 750 754 758 761 765 768 771 775 777 781 784 787 791 793 796 799 801 803 806 808 811 812 814 816 817 819 820
762 761 731 706 704 697 685 688 693 685 681 691 699 692 700 723 725 725 738 744 747 749 733 719 715 706 705 697 681 681 684 680 680 677 675 677 679 683 683 684 686 687 690 693 693 697 699 700 704 706 709 712 716 721 725 731 736 740 744 747 750 754 757 762 766 769 772 774 778 781 784 788 791 793 796 798 801 804 806 807 809 812 813 815 817 819
759 764 744 709 706 709 696 695 703 697 685 684 689 689 694 708 716 719 725 727 735 744 736 727 720 705 695 684 674 676 675 674 679 678 675 674 673 676 678 679 681 684 687 689 691 694 695 696 698 701 705 708 712 718 723 728 733 737 741 745 748 752 756 760 763 766 769 772 775 779 782 785 788 790 793 796 799 801 802 804 807 809 811 813 815 817
759 766 759 729 716 716 703 693 695 695 694 693 696 700 697 696 701 708 711 709 717 731 734 733 725 702 683 673 667 665 663 666 672 674 673 670 667 669 671 672 676 678 680 683 685 688 690 691 694 697 702 706 711 717 721 726 731 734 739 742 745 750 754 757 760 763 766 769 773 776 779 782 785 788 791 794 797 798 800 802 804 806 809 811 813 815
762 766 767 752 739 730 711 692 688 693 698 699 698 698 696 697 702 714 722 710 703 714 719 724 724 697 669 664 662 658 656 658 662 666 668 666 663 663 664 665 668 671 674 676 678 681 684 687 690 695 701 705 710 714 718 723 727 731 736 739 743 747 751 754 757 761 764 767 771 773 776 779 782 786 789 792 794 796 798 800 802 804 807 809 811 812
760 763 765 759 747 734 713 695 694 700 699 697 695 689 686 691 696 711 723 712 702 707 706 712 718 690 658 654 655 653 651 650 653 658 661 661 659 657 658 660 661 664 667 669 672 675 678 682 686 692 698 703 706 710 714 719 723 728 731 736 740 744 747 751 754 758 762 765 768 770 774 777 780 783 786 789 791 793 796 798 800 802 804 806 808 810
759 763 767 761 741 720 704 694 692 694 695 698 698 690 686 687 685 690 699 698 702 707 703 714 720 686 652 649 652 652 650 647 650 654 655 657 655 652 654 655 658 661 662 664 668 670 674 679 684 690 695 699 703 707 712 716 720 724 728 732 736 739 743 748 752 756 759 762 765 768 771 774 777 781 783 786 788 790 793 795 797 800 801 803 806 807
767 769 771 771 752 721 703 698 697 701 709 717 716 706 695 685 679 683 688 691 699 700 698 714 717 683 652 648 650 651 651 649 649 651 650 651 651 649 650 652 654 658 660 663 667 670 675 680 684 688 691 694 699 703 707 712 716 720 724 728 731 735 740 745 749 754 757 760 763 766 769 772 775 778 780 783 785 787 790 792 794 796 798 800 803 804
770 771 771 779 773 748 730 727 733 739 738 731 721 711 704 695 687 685 689 698 702 697 694 701 698 676 657 651 647 646 649 649 648 649 648 646 645 645 646 649 652 655 659 662 665 669 674 678 681 684 686 690 694 699 703 708 712 716 720 724 728 733 738 743 747 751 754 757 761 763 766 769 772 774 777 779 782 784 787 789 791 793 795 797 799 801
769 769 768 774 776 766 757 752 751 753 749 738 726 716 711 706 698 689 688 694 695 695 694 687 680 676 667 657 649 644 647 647 644 646 647 643 641 640 641 645 648 652 656 658 662 667 671 675 677 680 683 686 690 694 699 704 708 712 717 720 725 730 735 739 743 747 750 754 757 760 762 764 766 769 772 775 778 781 783 786 788 789 791 794 796 798
771 772 768 767 767 763 760 754 746 747 748 742 733 723 713 705 702 697 690 681 680 693 697 682 675 679 670 658 650 644 643 643 639 641 642 637 636 637 637 641 645 649 654 656 661 665 668 672 674 676 680 683 687 692 696 701 705 709 713 718 722 727 731 735 739 743 746 750 752 755 757 760 763 765 768 772 775 778 780 782 784 786 788 790 792 794
772 773 766 763 763 758 753 749 744 744 742 734 728 722 711 701 699 698 688 674 671 681 686 676 675 677 665 652 646 640 640 640 635 636 636 631 631 633 636 641 645 648 653 656 659 662 665 668 671 674 677 680 684 689 693 698 703 706 711 715 719 723 727 731 735 739 742 745 748 751 754 757 760 763 766 769 772 775 777 779 781 783 785 787 788 790
771 771 763 762 764 756 748 745 740 736 733 727 721 713 705 698 693 689 683 673 666 667 669 667 670 668 656 645 640 637 639 639 635 635 636 633 632 634 637 641 644 647 650 653 656 658 660 663 666 669 674 677 681 686 690 695 699 702 706 710 714 719 722 727 731 735 738 741 744 747 751 754 757 760 763 766 768 771 773 776 778 780 782 783 785 787
771 770 762 763 766 755 743 738 734 732 733 728 716 705 700 692 681 677 678 674 668 665 665 668 673 667 650 640 639 638 639 640 637 635 635 633 630 632 637 640 642 644 647 648 651 654 657 660 664 668 672 675 678 682 686 690 694 698 703 707 711 715 719 724 728 731 735 738 741 745 748 751 754 757 760 762 765 767 770 773 775 777 778 780 782 784
774 771 764 767 771 759 743 737 735 731 727 720 711 706 702 690 676 675 681 683 678 670 664 669 674 665 649 642 642 640 639 642 641 638 636 633 630 631 635 638 640 643 644 646 648 652 655 659 663 667 670 672 675 679 683 686 691 696 699 702 707 712 717 721 724 728 732 734 738 741 744 747 750 753 756 758 761 764 766 769 772 773 775 776 778 781
774 771 769 772 774 761 745 741 740 732 723 714 708 708 706 696 688 687 689 691 689 679 671 668 666 659 652 648 644 642 644 648 647 643 640 636 631 630 631 633 636 638 640 643 646 649 653 656 659 662 664 668 672 676 679 683 688 691 693 698 704 709 714 717 721 725 728 731 734 737 740 743 746 749 752 754 757 760 763 765 767 769 771 773 775 777
774 771 771 772 773 763 749 743 738 731 724 710 699 702 705 700 699 700 699 697 693 686 679 673 666 660 657 654 652 650 651 653 651 645 641 637 635 633 632 632 634 635 637 640 643 646 649 652 655 658 661 665 669 672 677 681 684 687 691 697 702 706 710 714 718 721 723 726 730 732 736 739 742 744 747 750 753 756 758 761 762 764 767 769 771 773
776 774 772 771 770 763 754 746 735 725 717 703 695 700 704 699 698 699 697 694 691 688 685 680 672 662 657 658 660 657 653 651 648 645 642 639 637 636 636 635 635 636 638 641 643 646 648 650 654 657 660 664 668 672 677 681 684 688 693 697 700 704 707 711 714 717 719 722 725 728 732 735 738 741 743 746 749 752 754 756 758 760 763 765 766 767
774 774 771 769 768 763 758 753 739 721 709 703 702 704 702 699 698 700 698 693 689 690 689 685 677 664 657 659 660 658 652 644 643 646 647 644 641 639 639 639 637 637 639 641 643 646 648 650 653 656 659 663 667 672 676 679 684 688 692 695 699 702 705 709 711 713 716 719 722 725 728 731 734 737 739 742 745 747 750 752 754 756 758 760 762 763
767 772 771 769 765 761 761 758 744 724 713 713 716 714 713 711 709 711 712 703 692 690 690 688 681 670 662 658 658 658 652 644 649 656 653 648 646 643 642 641 639 638 639 640 642 645 647 650 653 657 661 664 667 671 674 678 683 687 691 694 697 700 703 706 708 710 713 715 718 721 724 727 730 732 735 738 740 743 745 747 749 751 753 755 757 758
761 767 768 768 764 760 763 763 749 730 721 724 725 718 713 712 708 709 715 708 695 690 690 688 684 676 667 662 660 658 655 658 669 672 662 655 653 649 646 645 641 640 641 641 642 645 647 651 654 658 662 665 668 671 674 678 682 685 689 692 694 698 701 702 704 706 709 712 714 717 720 723 725 728 730 733 735 738 740 742 744 746 748 750 751 753
758 763 765 768 767 763 766 767 755 738 729 729 725 712 703 704 703 705 713 712 701 694 691 689 686 679 671 666 663 659 661 675 686 680 667 662 659 653 652 650 646 644 644 644 645 647 650 652 655 659 662 665 668 671 672 676 680 683 687 690 692 695 697 698 700 702 705 708 711 714 716 718 720 723 725 728 730 733 735 737 739 741 743 745 746 748
759 763 767 771 770 763 763 763 754 741 733 729 721 711 702 697 696 704 716 718 708 700 696 693 689 682 675 670 669 667 670 680 687 680 669 665 661 657 655 654 652 650 648 648 649 650 652 654 656 660 664 666 668 670 671 674 678 681 684 687 690 692 693 694 697 699 702 704 707 709 711 714 716 718 721 723 726 728 730 732 734 736 739 741 742 744
763 766 767 767 764 759 759 760 751 739 733 729 722 712 701 693 698 714 725 723 713 706 702 696 693 688 681 678 679 678 677 679 679 675 670 666 664 661 659 657 656 654 652 653 653 653 654 657 659 662 666 668 669 670 672 674 678 681 683 686 688 689 691 693 695 697 700 702 703 706 708 710 712 714 717 719 721 724 726 728 730 733 734 736 739 740
766 767 765 762 759 755 752 752 747 738 731 729 723 711 701 703 716 726 725 720 716 712 705 699 696 692 687 685 685 685 682 679 676 674 672 669 667 666 665 662 660 659 657 657 657 657 658 660 662 665 667 669 670 671 673 675 678 682 684 686 688 689 691 693 695 696 698 700 702 704 705 707 709 711 714 716 718 721 723 725 727 729 730 733 735 737
761 763 763 757 751 749 747 746 748 744 735 729 725 719 716 723 731 728 723 721 718 713 706 702 699 696 692 690 689 688 685 683 680 678 676 673 671 670 669 667 665 664 662 661 661 661 661 661 664 666 668 670 671 672 674 676 678 681 684 686 688 689 690 691 692 694 696 697 699 701 703 705 707 709 711 713 715 717 719 721 723 725 727 729 731 733
758 761 764 757 748 748 750 748 747 745 738 733 732 731 732 734 731 726 724 724 719 713 710 706 701 698 696 694 693 691 689 687 684 683 681 679 676 674 673 671 670 667 665 664 664 664 663 663 665 667 669 670 671 673 675 676 678 681 683 685 687 687 688 689 690 691 692 693 695 697 699 701 704 706 708 710 712 714 716 718 720 722 724 726 728 730
760 759 762 760 752 748 747 743 740 739 737 735 734 732 732 732 729 725 726 726 722 718 715 711 706 702 698 696 695 693 692 690 688 687 686 684 681 679 677 675 673 671 669 667 667 666 665 666 667 669 670 672 673 675 676 678 679 681 683 685 686 686 686 687 687 688 689 690 692 693 695 697 699 702 704 706 709 711 712 715 717 718 720 723 725 726
759 755 757 759 754 745 740 737 736 737 737 735 733 732 731 732 730 726 725 725 725 723 719 715 711 707 702 699 698 696 695 693 691 690 690 689 686 683 681 679 677 675 673 671 670 670 669 669 670 671 673 674 676 677 678 679 680 682 683 684 684 684 685 685 685 686 687 688 690 691 692 694 696 698 700 703 705 707 709 711 713 715 717 719 721 723
758 755 757 759 758 753 745 739 738 738 737 734 733 733 734 734 733 731 729 726 724 723 721 717 714 711 707 705 703 701 699 695 693 693 693 692 691 688 685 683 681 679 677 676 675 674 674 674 674 675 676 677 678 678 679 680 681 682 683 684 684 684 684 683 684 685 686 687 688 689 691 692 693 695 697 700 702 704 706 708 710 712 713 715 717 720
762 758 759 761 760 756 749 742 738 736 734 732 733 735 736 737 737 737 735 730 725 724 723 721 717 715 712 710 708 706 703 700 698 696 695 694 694 692 689 687 685 683 681 680 679 678 678 678 678 679 679 680 680 680 681 681 681 682 682 682 683 683 682 683 683 684 684 685 687 688 689 691 692 693 696 698 700 702 704 706 708 710 711 713 715 717
763 762 763 763 761 756 748 743 738 734 730 729 731 734 737 738 740 740 739 734 729 726 726 725 722 718 715 713 712 709 707 704 702 700 698 696 695 694 693 690 688 686 685 684 683 682 682 682 682 682 681 681 681 681 681 681 681 681 681 681 681 681 681 682 682 683 684 684 685 686 688 690 691 693 694 696 698 700 702 705 707 708 710 711 713 715
765 768 768 768 766 758 748 744 744 744 739 733 730 732 736 738 740 742 742 738 734 731 731 730 726 719 715 714 713 712 711 708 705 703 702 699 697 696 694 693 691 688 687 686 685 684 684 683 683 681 680 680 680 680 680 681 681 681 681 680 680 680 680 680 681 682 683 684 685 686 687 688 690 692 693 694 696 698 701 704 705 707 709 710 712 714
769 772 772 772 769 758 748 747 750 750 744 736 731 732 736 738 740 741 741 740 737 735 734 734 729 723 718 716 715 715 714 712 709 707 705 702 700 697 695 694 693 691 689 688 687 685 684 683 682 681 680 680 680 680 681 681 682 682 681 681 680 680 680 680 681 681 682 683 684 685 686 688 689 690 692 694 695 697 700 702 704 706 708 709 710 712